Time,TemperatureF,DewpointF,PressureIn,WindDirection,WindDirectionDegrees,WindSpeedMPH,WindSpeedGustMPH,Humidity,HourlyPrecipIn,Conditions,Clouds,dailyrainin,SoftwareType,DateUTC
2013-05-27 00:00:00,75.0,63.3,30.18,ENE,67,0.0,0.0,67,0.00,,,0.00,Wunderground v.1.15,2013-05-27 04:00:00,
2013-05-27 00:01:00,75.0,63.7,30.18,ESE,116,0.0,7.0,68,0.00,,,0.00,Wunderground v.1.15,2013-05-27 04:01:00,
2013-05-27 00:02:00,75.0,63.7,30.18,ESE,117,0.0,7.0,68,0.00,,,0.00,Wunderground v.1.15,2013-05-27 04:02:00,
2013-05-27 00:03:00,74.9,63.6,30.18,East,96,0.0,7.0,68,0.00,,,0.00,Wunderground v.1.15,2013-05-27 04:03:00,
2013-05-27 00:08:00,74.9,63.6,30.18,East,101,0.0,7.0,68,0.00,,,0.00,Wunderground v.1.15,2013-05-27 04:08:00,
2013-05-27 00:13:00,74.8,63.5,30.18,ENE,66,0.0,0.0,68,0.00,,,0.00,Wunderground v.1.15,2013-05-27 04:13:00,
2013-05-27 00:18:00,74.7,63.9,30.18,SE,142,0.0,1.0,69,0.00,,,0.00,Wunderground v.1.15,2013-05-27 04:18:00,
2013-05-27 00:24:00,74.7,63.9,30.19,ENE,76,0.0,0.0,69,0.00,,,0.00,Wunderground v.1.15,2013-05-27 04:24:00,
2013-05-27 00:29:00,74.6,63.8,30.19,East,80,0.0,0.0,69,0.00,,,0.00,Wunderground v.1.15,2013-05-27 04:29:00,
2013-05-27 00:34:00,74.6,63.8,30.19,SSE,152,0.0,3.0,69,0.00,,,0.00,Wunderground v.1.15,2013-05-27 04:34:00,
2013-05-27 00:39:00,74.5,63.7,30.19,East,88,1.0,3.0,69,0.00,,,0.00,Wunderground v.1.15,2013-05-27 04:39:00,
2013-05-27 00:44:00,74.5,63.7,30.19,ESE,113,0.0,1.0,69,0.00,,,0.00,Wunderground v.1.15,2013-05-27 04:44:00,
2013-05-27 00:49:00,74.4,64.0,30.19,NE,43,0.0,1.0,70,0.00,,,0.00,Wunderground v.1.15,2013-05-27 04:49:00,
2013-05-27 00:54:00,74.3,63.9,30.19,ESE,115,0.0,0.0,70,0.00,,,0.00,Wunderground v.1.15,2013-05-27 04:54:00,
2013-05-27 00:59:00,74.3,63.5,30.19,ESE,110,0.0,1.0,69,0.00,,,0.00,Wunderground v.1.15,2013-05-27 04:59:00,
2013-05-27 01:04:00,74.2,63.4,30.19,ESE,104,0.0,5.0,69,0.00,,,0.00,Wunderground v.1.15,2013-05-27 05:04:00,
2013-05-27 01:10:00,74.1,63.7,30.19,ESE,119,1.0,1.0,70,0.00,,,0.00,Wunderground v.1.15,2013-05-27 05:10:00,
2013-05-27 01:15:00,74.1,63.7,30.19,ESE,106,1.0,1.0,70,0.00,,,0.00,Wunderground v.1.15,2013-05-27 05:15:00,
2013-05-27 01:20:00,74.0,63.6,30.19,ESE,111,0.0,0.0,70,0.00,,,0.00,Wunderground v.1.15,2013-05-27 05:20:00,
2013-05-27 01:25:00,73.9,63.5,30.19,East,80,0.0,6.0,70,0.00,,,0.00,Wunderground v.1.15,2013-05-27 05:25:00,
2013-05-27 01:31:00,73.7,63.3,30.19,ENE,73,0.0,0.0,70,0.00,,,0.00,Wunderground v.1.15,2013-05-27 05:31:00,
2013-05-27 01:36:00,73.7,63.3,30.19,SE,136,0.0,0.0,70,0.00,,,0.00,Wunderground v.1.15,2013-05-27 05:36:00,
2013-05-27 01:41:00,73.6,63.6,30.19,NNE,30,0.0,0.0,71,0.00,,,0.00,Wunderground v.1.15,2013-05-27 05:41:00,
2013-05-27 01:46:00,73.6,64.0,30.19,NE,46,0.0,0.0,72,0.00,,,0.00,Wunderground v.1.15,2013-05-27 05:46:00,
2013-05-27 01:51:00,73.5,63.9,30.19,NE,46,0.0,0.0,72,0.00,,,0.00,Wunderground v.1.15,2013-05-27 05:51:00,
2013-05-27 01:56:00,73.3,63.7,30.19,SE,145,0.0,0.0,72,0.00,,,0.00,Wunderground v.1.15,2013-05-27 05:56:00,
2013-05-27 02:01:00,73.1,63.9,30.19,SE,146,0.0,10.0,73,0.00,,,0.00,Wunderground v.1.15,2013-05-27 06:01:00,
2013-05-27 02:06:00,72.9,63.7,30.19,SE,146,0.0,10.0,73,0.00,,,0.00,Wunderground v.1.15,2013-05-27 06:06:00,
2013-05-27 02:11:00,72.8,63.6,30.18,SE,146,0.0,0.0,73,0.00,,,0.00,Wunderground v.1.15,2013-05-27 06:11:00,
2013-05-27 02:16:00,72.6,63.8,30.18,SE,141,0.0,0.0,74,0.00,,,0.00,Wunderground v.1.15,2013-05-27 06:16:00,
2013-05-27 02:21:00,72.5,64.1,30.18,SE,139,0.0,0.0,75,0.00,,,0.00,Wunderground v.1.15,2013-05-27 06:21:00,
2013-05-27 02:26:00,72.4,64.0,30.17,SE,139,0.0,0.0,75,0.00,,,0.00,Wunderground v.1.15,2013-05-27 06:26:00,
2013-05-27 02:31:00,72.3,64.3,30.17,SE,138,0.0,0.0,76,0.00,,,0.00,Wunderground v.1.15,2013-05-27 06:31:00,
2013-05-27 02:36:00,72.2,64.2,30.17,SE,125,0.0,0.0,76,0.00,,,0.00,Wunderground v.1.15,2013-05-27 06:36:00,
2013-05-27 02:41:00,72.1,64.5,30.17,ESE,112,0.0,0.0,77,0.00,,,0.00,Wunderground v.1.15,2013-05-27 06:41:00,
2013-05-27 02:46:00,72.1,64.5,30.17,ESE,112,0.0,0.0,77,0.00,,,0.00,Wunderground v.1.15,2013-05-27 06:46:00,
2013-05-27 02:51:00,72.1,64.5,30.17,East,99,0.0,0.0,77,0.00,,,0.00,Wunderground v.1.15,2013-05-27 06:51:00,
2013-05-27 02:56:00,72.1,64.9,30.16,South,180,0.0,0.0,78,0.00,,,0.00,Wunderground v.1.15,2013-05-27 06:56:00,
2013-05-27 03:01:00,72.1,64.9,30.16,ESE,120,0.0,2.0,78,0.00,,,0.00,Wunderground v.1.15,2013-05-27 07:01:00,
2013-05-27 03:06:00,72.0,64.8,30.16,ESE,117,0.0,2.0,78,0.00,,,0.00,Wunderground v.1.15,2013-05-27 07:06:00,
2013-05-27 03:11:00,72.0,64.8,30.16,ESE,117,0.0,0.0,78,0.00,,,0.00,Wunderground v.1.15,2013-05-27 07:11:00,
2013-05-27 03:16:00,71.9,64.7,30.15,ESE,115,0.0,0.0,78,0.00,,,0.00,Wunderground v.1.15,2013-05-27 07:16:00,
2013-05-27 03:21:00,71.9,64.7,30.15,ESE,115,0.0,0.0,78,0.00,,,0.00,Wunderground v.1.15,2013-05-27 07:21:00,
2013-05-27 03:26:00,71.8,64.6,30.15,ESE,115,0.0,0.0,78,0.00,,,0.00,Wunderground v.1.15,2013-05-27 07:26:00,
2013-05-27 03:31:00,71.8,64.9,30.15,ESE,114,0.0,0.0,79,0.00,,,0.00,Wunderground v.1.15,2013-05-27 07:31:00,
2013-05-27 03:36:00,71.9,65.0,30.15,ESE,116,0.0,0.0,79,0.00,,,0.00,Wunderground v.1.15,2013-05-27 07:36:00,
2013-05-27 03:41:00,72.0,65.1,30.15,ESE,123,0.0,0.0,79,0.00,,,0.00,Wunderground v.1.15,2013-05-27 07:41:00,
2013-05-27 03:46:00,72.0,64.8,30.15,SE,125,0.0,0.0,78,0.00,,,0.00,Wunderground v.1.15,2013-05-27 07:46:00,
2013-05-27 03:51:00,72.2,65.0,30.15,East,89,0.0,0.0,78,0.00,,,0.00,Wunderground v.1.15,2013-05-27 07:51:00,
2013-05-27 03:57:00,72.3,64.7,30.15,ESE,119,0.0,2.0,77,0.00,,,0.00,Wunderground v.1.15,2013-05-27 07:57:00,
2013-05-27 04:02:00,72.4,64.8,30.15,NNE,29,0.0,1.0,77,0.00,,,0.00,Wunderground v.1.15,2013-05-27 08:02:00,
2013-05-27 04:07:00,72.5,64.9,30.15,SE,128,0.0,1.0,77,0.00,,,0.00,Wunderground v.1.15,2013-05-27 08:07:00,
2013-05-27 04:12:00,72.6,65.0,30.15,East,94,0.0,0.0,77,0.00,,,0.00,Wunderground v.1.15,2013-05-27 08:12:00,
2013-05-27 04:17:00,72.6,64.6,30.15,ESE,105,0.0,0.0,76,0.00,,,0.00,Wunderground v.1.15,2013-05-27 08:17:00,
2013-05-27 04:22:00,72.6,65.0,30.15,ESE,103,0.0,0.0,77,0.00,,,0.00,Wunderground v.1.15,2013-05-27 08:22:00,
2013-05-27 04:27:00,72.7,65.1,30.15,ESE,103,0.0,0.0,77,0.00,,,0.00,Wunderground v.1.15,2013-05-27 08:27:00,
2013-05-27 04:33:00,72.6,65.0,30.16,ESE,103,0.0,0.0,77,0.00,,,0.00,Wunderground v.1.15,2013-05-27 08:33:00,
2013-05-27 04:38:00,72.5,65.2,30.16,ESE,104,0.0,0.0,78,0.00,,,0.00,Wunderground v.1.15,2013-05-27 08:38:00,
2013-05-27 04:43:00,72.4,65.2,30.16,ESE,104,0.0,0.0,78,0.00,,,0.00,Wunderground v.1.15,2013-05-27 08:43:00,
2013-05-27 04:48:00,72.2,65.0,30.16,ESE,103,0.0,0.0,78,0.00,,,0.00,Wunderground v.1.15,2013-05-27 08:48:00,
2013-05-27 04:53:00,72.1,65.2,30.15,ESE,104,0.0,0.0,79,0.00,,,0.00,Wunderground v.1.15,2013-05-27 08:53:00,
2013-05-27 04:58:00,71.9,65.0,30.15,ESE,104,0.0,0.0,79,0.00,,,0.00,Wunderground v.1.15,2013-05-27 08:58:00,
2013-05-27 05:03:00,71.9,65.0,30.16,ESE,104,0.0,2.0,79,0.00,,,0.00,Wunderground v.1.15,2013-05-27 09:03:00,
2013-05-27 05:08:00,71.7,64.8,30.16,ESE,103,0.0,2.0,79,0.00,,,0.00,Wunderground v.1.15,2013-05-27 09:08:00,
2013-05-27 05:13:00,71.6,64.7,30.15,ESE,104,0.0,0.0,79,0.00,,,0.00,Wunderground v.1.15,2013-05-27 09:13:00,
2013-05-27 05:18:00,71.5,64.6,30.15,SE,128,0.0,0.0,79,0.00,,,0.00,Wunderground v.1.15,2013-05-27 09:18:00,
2013-05-27 05:23:00,71.5,64.6,30.15,SE,128,0.0,0.0,79,0.00,,,0.00,Wunderground v.1.15,2013-05-27 09:23:00,
2013-05-27 05:28:00,71.4,64.9,30.15,SE,128,0.0,0.0,80,0.00,,,0.00,Wunderground v.1.15,2013-05-27 09:28:00,
2013-05-27 05:33:00,71.3,64.8,30.15,SE,128,0.0,0.0,80,0.00,,,0.00,Wunderground v.1.15,2013-05-27 09:33:00,
2013-05-27 05:38:00,71.3,64.8,30.15,SE,128,0.0,0.0,80,0.00,,,0.00,Wunderground v.1.15,2013-05-27 09:38:00,
2013-05-27 05:44:00,71.2,64.7,30.15,SE,128,0.0,0.0,80,0.00,,,0.00,Wunderground v.1.15,2013-05-27 09:44:00,
2013-05-27 05:49:00,71.1,64.6,30.15,SE,128,0.0,0.0,80,0.00,,,0.00,Wunderground v.1.15,2013-05-27 09:49:00,
2013-05-27 05:54:00,71.0,64.5,30.15,SE,128,0.0,0.0,80,0.00,,,0.00,Wunderground v.1.15,2013-05-27 09:54:00,
2013-05-27 06:00:00,71.0,64.9,30.15,SE,128,0.0,0.0,81,0.00,,,0.00,Wunderground v.1.15,2013-05-27 10:00:00,
2013-05-27 06:05:00,70.8,64.7,30.16,SE,128,0.0,0.0,81,0.00,,,0.00,Wunderground v.1.15,2013-05-27 10:05:00,
2013-05-27 06:11:00,70.7,64.9,30.15,SE,128,0.0,0.0,82,0.00,,,0.00,Wunderground v.1.15,2013-05-27 10:11:00,
2013-05-27 06:16:00,70.6,64.8,30.15,SE,128,0.0,0.0,82,0.00,,,0.00,Wunderground v.1.15,2013-05-27 10:16:00,
2013-05-27 06:21:00,70.5,65.1,30.15,SE,128,0.0,0.0,83,0.00,,,0.00,Wunderground v.1.15,2013-05-27 10:21:00,
2013-05-27 06:26:00,70.4,65.0,30.15,ESE,121,0.0,0.0,83,0.00,,,0.00,Wunderground v.1.15,2013-05-27 10:26:00,
2013-05-27 06:31:00,70.3,64.9,30.15,ESE,121,0.0,0.0,83,0.00,,,0.00,Wunderground v.1.15,2013-05-27 10:31:00,
2013-05-27 06:36:00,70.3,64.9,30.15,ESE,121,0.0,0.0,83,0.00,,,0.00,Wunderground v.1.15,2013-05-27 10:36:00,
2013-05-27 06:41:00,70.2,64.8,30.15,ESE,121,0.0,0.0,83,0.00,,,0.00,Wunderground v.1.15,2013-05-27 10:41:00,
2013-05-27 06:46:00,70.1,64.7,30.15,ESE,121,0.0,0.0,83,0.00,,,0.00,Wunderground v.1.15,2013-05-27 10:46:00,
2013-05-27 06:51:00,70.1,64.7,30.16,ESE,120,0.0,0.0,83,0.00,,,0.00,Wunderground v.1.15,2013-05-27 10:51:00,
2013-05-27 06:56:00,70.1,64.7,30.16,ESE,119,0.0,0.0,83,0.00,,,0.00,Wunderground v.1.15,2013-05-27 10:56:00,
2013-05-27 07:01:00,70.1,64.7,30.16,SE,132,0.0,0.0,83,0.00,,,0.00,Wunderground v.1.15,2013-05-27 11:01:00,
2013-05-27 07:07:00,70.1,64.7,30.16,SE,132,0.0,0.0,83,0.00,,,0.00,Wunderground v.1.15,2013-05-27 11:07:00,
2013-05-27 07:12:00,70.1,65.0,30.16,SE,132,0.0,0.0,84,0.00,,,0.00,Wunderground v.1.15,2013-05-27 11:12:00,
2013-05-27 07:17:00,70.2,65.1,30.16,SE,132,0.0,0.0,84,0.00,,,0.00,Wunderground v.1.15,2013-05-27 11:17:00,
2013-05-27 07:22:00,70.3,65.2,30.16,SE,132,0.0,0.0,84,0.00,,,0.00,Wunderground v.1.15,2013-05-27 11:22:00,
2013-05-27 07:27:00,70.4,65.3,30.16,SE,130,0.0,0.0,84,0.00,,,0.00,Wunderground v.1.15,2013-05-27 11:27:00,
2013-05-27 07:32:00,70.5,65.1,30.16,SE,130,0.0,0.0,83,0.00,,,0.00,Wunderground v.1.15,2013-05-27 11:32:00,
2013-05-27 07:37:00,70.6,65.2,30.16,SE,129,0.0,0.0,83,0.00,,,0.00,Wunderground v.1.15,2013-05-27 11:37:00,
2013-05-27 07:42:00,70.8,65.4,30.16,SE,129,0.0,0.0,83,0.00,,,0.00,Wunderground v.1.15,2013-05-27 11:42:00,
2013-05-27 07:47:00,71.0,65.6,30.16,SE,129,0.0,0.0,83,0.00,,,0.00,Wunderground v.1.15,2013-05-27 11:47:00,
2013-05-27 07:52:00,71.2,65.4,30.17,ESE,120,0.0,0.0,82,0.00,,,0.00,Wunderground v.1.15,2013-05-27 11:52:00,
2013-05-27 07:57:00,71.5,65.7,30.17,East,99,0.0,0.0,82,0.00,,,0.00,Wunderground v.1.15,2013-05-27 11:57:00,
2013-05-27 08:02:00,71.7,65.6,30.17,East,80,0.0,0.0,81,0.00,,,0.00,Wunderground v.1.15,2013-05-27 12:02:00,
2013-05-27 08:07:00,72.1,65.9,30.17,ENE,69,0.0,0.0,81,0.00,,,0.00,Wunderground v.1.15,2013-05-27 12:07:00,
2013-05-27 08:12:00,72.4,65.9,30.17,ENE,71,0.0,0.0,80,0.00,,,0.00,Wunderground v.1.15,2013-05-27 12:12:00,
2013-05-27 08:17:00,72.9,65.6,30.17,ENE,59,0.0,0.0,78,0.00,,,0.00,Wunderground v.1.15,2013-05-27 12:17:00,
2013-05-27 08:22:00,73.3,65.7,30.17,ENE,67,0.0,1.0,77,0.00,,,0.00,Wunderground v.1.15,2013-05-27 12:22:00,
2013-05-27 08:28:00,73.9,65.9,30.18,ESE,123,0.0,1.0,76,0.00,,,0.00,Wunderground v.1.15,2013-05-27 12:28:00,
2013-05-27 08:33:00,74.3,65.9,30.18,SE,125,0.0,2.0,75,0.00,,,0.00,Wunderground v.1.15,2013-05-27 12:33:00,
2013-05-27 08:38:00,74.6,65.8,30.18,East,82,0.0,2.0,74,0.00,,,0.00,Wunderground v.1.15,2013-05-27 12:38:00,
2013-05-27 08:44:00,75.0,65.8,30.18,ESE,109,0.0,2.0,73,0.00,,,0.00,Wunderground v.1.15,2013-05-27 12:44:00,
2013-05-27 08:49:00,75.3,66.0,30.18,East,101,0.0,2.0,73,0.00,,,0.00,Wunderground v.1.15,2013-05-27 12:49:00,
2013-05-27 08:54:00,75.7,65.6,30.18,ESE,105,0.0,0.0,71,0.00,,,0.00,Wunderground v.1.15,2013-05-27 12:54:00,
2013-05-27 08:59:00,76.1,65.6,30.18,East,91,0.0,5.0,70,0.00,,,0.00,Wunderground v.1.15,2013-05-27 12:59:00,
2013-05-27 09:04:00,76.4,65.9,30.17,East,91,0.0,1.0,70,0.00,,,0.00,Wunderground v.1.15,2013-05-27 13:04:00,
2013-05-27 09:10:00,76.6,65.7,30.18,East,80,0.0,0.0,69,0.00,,,0.00,Wunderground v.1.15,2013-05-27 13:10:00,
2013-05-27 09:15:00,76.7,65.8,30.17,East,99,0.0,0.0,69,0.00,,,0.00,Wunderground v.1.15,2013-05-27 13:15:00,
2013-05-27 09:20:00,76.9,65.5,30.18,SE,129,1.0,1.0,68,0.00,,,0.00,Wunderground v.1.15,2013-05-27 13:20:00,
2013-05-27 09:26:00,76.9,65.5,30.18,East,88,1.0,1.0,68,0.00,,,0.00,Wunderground v.1.15,2013-05-27 13:26:00,
2013-05-27 09:31:00,77.1,65.7,30.17,ESE,114,0.0,1.0,68,0.00,,,0.00,Wunderground v.1.15,2013-05-27 13:31:00,
2013-05-27 09:36:00,77.2,65.8,30.17,ENE,60,1.0,2.0,68,0.00,,,0.00,Wunderground v.1.15,2013-05-27 13:36:00,
2013-05-27 09:41:00,77.7,65.9,30.18,SSE,148,1.0,1.0,67,0.00,,,0.00,Wunderground v.1.15,2013-05-27 13:41:00,
2013-05-27 09:46:00,77.9,65.2,30.17,SW,218,1.0,2.0,65,0.00,,,0.00,Wunderground v.1.15,2013-05-27 13:46:00,
2013-05-27 09:52:00,78.1,65.8,30.18,East,97,0.0,1.0,66,0.00,,,0.00,Wunderground v.1.15,2013-05-27 13:52:00,
2013-05-27 09:57:00,78.7,65.5,30.18,SE,128,0.0,1.0,64,0.00,,,0.00,Wunderground v.1.15,2013-05-27 13:57:00,
2013-05-27 10:02:00,78.8,64.2,30.18,SE,144,1.0,5.0,61,0.00,,,0.00,Wunderground v.1.15,2013-05-27 14:02:00,
2013-05-27 10:07:00,78.9,63.8,30.18,SE,138,1.0,5.0,60,0.00,,,0.00,Wunderground v.1.15,2013-05-27 14:07:00,
2013-05-27 10:12:00,79.0,63.9,30.18,SE,143,1.0,1.0,60,0.00,,,0.00,Wunderground v.1.15,2013-05-27 14:12:00,
2013-05-27 10:17:00,78.9,63.8,30.18,SE,124,1.0,2.0,60,0.00,,,0.00,Wunderground v.1.15,2013-05-27 14:17:00,
2013-05-27 10:22:00,79.0,63.9,30.18,East,80,1.0,1.0,60,0.00,,,0.00,Wunderground v.1.15,2013-05-27 14:22:00,
2013-05-27 10:27:00,79.1,64.0,30.18,East,91,0.0,5.0,60,0.00,,,0.00,Wunderground v.1.15,2013-05-27 14:27:00,
2013-05-27 10:32:00,79.3,64.2,30.18,East,90,1.0,1.0,60,0.00,,,0.00,Wunderground v.1.15,2013-05-27 14:32:00,
2013-05-27 10:37:00,79.8,64.2,30.18,ESE,118,1.0,4.0,59,0.00,,,0.00,Wunderground v.1.15,2013-05-27 14:37:00,
2013-05-27 10:43:00,80.2,64.6,30.18,ESE,118,0.0,0.0,59,0.00,,,0.00,Wunderground v.1.15,2013-05-27 14:43:00,
2013-05-27 10:48:00,80.5,63.9,30.18,ENE,70,0.0,6.0,57,0.00,,,0.00,Wunderground v.1.15,2013-05-27 14:48:00,
2013-05-27 10:53:00,80.9,64.2,30.18,ESE,112,1.0,1.0,57,0.00,,,0.00,Wunderground v.1.15,2013-05-27 14:53:00,
2013-05-27 10:58:00,81.3,64.6,30.18,NE,43,0.0,1.0,57,0.00,,,0.00,Wunderground v.1.15,2013-05-27 14:58:00,
2013-05-27 11:04:00,81.6,65.4,30.18,SSE,154,0.0,11.0,58,0.00,,,0.00,Wunderground v.1.15,2013-05-27 15:04:00,
2013-05-27 11:10:00,82.0,64.8,30.18,ESE,123,0.0,0.0,56,0.00,,,0.00,Wunderground v.1.15,2013-05-27 15:10:00,
2013-05-27 11:15:00,82.0,65.3,30.18,North,10,0.0,0.0,57,0.00,,,0.00,Wunderground v.1.15,2013-05-27 15:15:00,
2013-05-27 11:20:00,82.6,64.8,30.18,East,92,0.0,0.0,55,0.00,,,0.00,Wunderground v.1.15,2013-05-27 15:20:00,
2013-05-27 11:25:00,82.9,65.1,30.18,NE,55,0.0,0.0,55,0.00,,,0.00,Wunderground v.1.15,2013-05-27 15:25:00,
2013-05-27 11:31:00,83.0,64.6,30.18,East,79,1.0,2.0,54,0.00,,,0.00,Wunderground v.1.15,2013-05-27 15:31:00,
2013-05-27 11:36:00,82.9,64.5,30.18,ESE,105,1.0,4.0,54,0.00,,,0.00,Wunderground v.1.15,2013-05-27 15:36:00,
2013-05-27 11:41:00,82.9,64.5,30.18,ESE,109,0.0,1.0,54,0.00,,,0.00,Wunderground v.1.15,2013-05-27 15:41:00,
2013-05-27 11:46:00,83.2,64.3,30.18,SE,133,0.0,1.0,53,0.00,,,0.00,Wunderground v.1.15,2013-05-27 15:46:00,
2013-05-27 11:52:00,83.8,64.8,30.18,ESE,113,0.0,0.0,53,0.00,,,0.00,Wunderground v.1.15,2013-05-27 15:52:00,
2013-05-27 11:57:00,83.9,64.4,30.18,NW,318,1.0,3.0,52,0.00,,,0.00,Wunderground v.1.15,2013-05-27 15:57:00,
2013-05-27 12:02:00,83.8,64.3,30.18,NNW,333,1.0,6.0,52,0.00,,,0.00,Wunderground v.1.15,2013-05-27 16:02:00,
2013-05-27 12:07:00,83.9,64.9,30.18,ENE,62,1.0,6.0,53,0.00,,,0.00,Wunderground v.1.15,2013-05-27 16:07:00,
2013-05-27 12:12:00,84.0,64.5,30.18,ESE,111,1.0,1.0,52,0.00,,,0.00,Wunderground v.1.15,2013-05-27 16:12:00,
2013-05-27 12:18:00,84.1,65.1,30.18,North,5,0.0,1.0,53,0.00,,,0.00,Wunderground v.1.15,2013-05-27 16:18:00,
2013-05-27 12:23:00,84.6,64.5,30.18,SE,140,0.0,5.0,51,0.00,,,0.00,Wunderground v.1.15,2013-05-27 16:23:00,
2013-05-27 12:28:00,84.9,64.8,30.18,ESE,107,1.0,5.0,51,0.00,,,0.00,Wunderground v.1.15,2013-05-27 16:28:00,
2013-05-27 12:33:00,85.6,64.8,30.18,SE,144,1.0,1.0,50,0.00,,,0.00,Wunderground v.1.15,2013-05-27 16:33:00,
2013-05-27 12:38:00,85.6,63.7,30.18,ENE,68,0.0,2.0,48,0.00,,,0.00,Wunderground v.1.15,2013-05-27 16:38:00,
2013-05-27 12:43:00,85.3,64.0,30.18,East,86,0.0,0.0,49,0.00,,,0.00,Wunderground v.1.15,2013-05-27 16:43:00,
2013-05-27 12:49:00,85.0,63.7,30.18,ENE,72,0.0,1.0,49,0.00,,,0.00,Wunderground v.1.15,2013-05-27 16:49:00,
2013-05-27 12:54:00,85.4,64.6,30.17,NE,36,0.0,0.0,50,0.00,,,0.00,Wunderground v.1.15,2013-05-27 16:54:00,
2013-05-27 12:59:00,85.8,64.4,30.17,East,80,0.0,5.0,49,0.00,,,0.00,Wunderground v.1.15,2013-05-27 16:59:00,
2013-05-27 13:04:00,86.3,63.7,30.17,ESE,105,0.0,9.0,47,0.00,,,0.00,Wunderground v.1.15,2013-05-27 17:04:00,
2013-05-27 13:09:00,86.4,64.4,30.17,East,84,1.0,9.0,48,0.00,,,0.00,Wunderground v.1.15,2013-05-27 17:09:00,
2013-05-27 13:14:00,86.7,64.7,30.18,NE,39,0.0,1.0,48,0.00,,,0.00,Wunderground v.1.15,2013-05-27 17:14:00,
2013-05-27 13:20:00,86.8,64.2,30.17,ENE,59,0.0,0.0,47,0.00,,,0.00,Wunderground v.1.15,2013-05-27 17:20:00,
2013-05-27 13:25:00,87.3,64.0,30.17,ENE,60,0.0,0.0,46,0.00,,,0.00,Wunderground v.1.15,2013-05-27 17:25:00,
2013-05-27 13:30:00,87.3,64.0,30.17,NE,39,0.0,0.0,46,0.00,,,0.00,Wunderground v.1.15,2013-05-27 17:30:00,
2013-05-27 13:35:00,87.4,63.5,30.17,SE,145,0.0,1.0,45,0.00,,,0.00,Wunderground v.1.15,2013-05-27 17:35:00,
2013-05-27 13:40:00,87.4,64.1,30.17,ENE,74,0.0,0.0,46,0.00,,,0.00,Wunderground v.1.15,2013-05-27 17:40:00,
2013-05-27 13:46:00,87.7,63.7,30.17,ENE,67,0.0,1.0,45,0.00,,,0.00,Wunderground v.1.15,2013-05-27 17:46:00,
2013-05-27 13:52:00,87.7,63.7,30.16,ESE,104,0.0,0.0,45,0.00,,,0.00,Wunderground v.1.15,2013-05-27 17:52:00,
2013-05-27 13:57:00,88.3,63.6,30.16,NE,45,1.0,1.0,44,0.00,,,0.00,Wunderground v.1.15,2013-05-27 17:57:00,
2013-05-27 14:02:00,88.3,63.6,30.15,ESE,105,0.0,5.0,44,0.00,,,0.00,Wunderground v.1.15,2013-05-27 18:02:00,
2013-05-27 14:08:00,88.2,62.9,30.15,SE,134,1.0,5.0,43,0.00,,,0.00,Wunderground v.1.15,2013-05-27 18:08:00,
2013-05-27 14:13:00,88.3,63.0,30.15,SE,142,1.0,1.0,43,0.00,,,0.00,Wunderground v.1.15,2013-05-27 18:13:00,
2013-05-27 14:18:00,88.1,62.1,30.15,ESE,117,0.0,1.0,42,0.00,,,0.00,Wunderground v.1.15,2013-05-27 18:18:00,
2013-05-27 14:23:00,87.9,61.9,30.15,South,181,1.0,3.0,42,0.00,,,0.00,Wunderground v.1.15,2013-05-27 18:23:00,
2013-05-27 14:29:00,88.2,62.9,30.15,NE,55,0.0,3.0,43,0.00,,,0.00,Wunderground v.1.15,2013-05-27 18:29:00,
2013-05-27 14:34:00,88.9,62.8,30.15,ESE,110,0.0,2.0,42,0.00,,,0.00,Wunderground v.1.15,2013-05-27 18:34:00,
2013-05-27 14:39:00,89.2,61.7,30.15,East,99,0.0,2.0,40,0.00,,,0.00,Wunderground v.1.15,2013-05-27 18:39:00,
2013-05-27 14:44:00,89.1,61.6,30.15,ESE,123,0.0,0.0,40,0.00,,,0.00,Wunderground v.1.15,2013-05-27 18:44:00,
2013-05-27 14:50:00,89.1,62.3,30.14,East,98,0.0,0.0,41,0.00,,,0.00,Wunderground v.1.15,2013-05-27 18:50:00,
2013-05-27 14:55:00,89.4,61.2,30.14,East,92,0.0,0.0,39,0.00,,,0.00,Wunderground v.1.15,2013-05-27 18:55:00,
2013-05-27 15:00:00,90.1,61.1,30.14,ENE,74,0.0,0.0,38,0.00,,,0.00,Wunderground v.1.15,2013-05-27 19:00:00,
2013-05-27 15:05:00,89.5,60.5,30.14,SE,132,1.0,12.0,38,0.00,,,0.00,Wunderground v.1.15,2013-05-27 19:05:00,
2013-05-27 15:11:00,89.2,61.7,30.13,ESE,115,1.0,1.0,40,0.00,,,0.00,Wunderground v.1.15,2013-05-27 19:11:00,
2013-05-27 15:16:00,89.1,61.6,30.13,NNE,14,1.0,4.0,40,0.00,,,0.00,Wunderground v.1.15,2013-05-27 19:16:00,
2013-05-27 15:21:00,88.7,61.3,30.13,ENE,59,0.0,0.0,40,0.00,,,0.00,Wunderground v.1.15,2013-05-27 19:21:00,
2013-05-27 15:26:00,88.4,61.0,30.12,NE,51,0.0,3.0,40,0.00,,,0.00,Wunderground v.1.15,2013-05-27 19:26:00,
2013-05-27 15:31:00,88.0,61.3,30.12,ENE,59,0.0,0.0,41,0.00,,,0.00,Wunderground v.1.15,2013-05-27 19:31:00,
2013-05-27 15:36:00,87.9,61.3,30.12,North,360,0.0,5.0,41,0.00,,,0.00,Wunderground v.1.15,2013-05-27 19:36:00,
2013-05-27 15:42:00,87.9,61.3,30.12,SE,125,0.0,0.0,41,0.00,,,0.00,Wunderground v.1.15,2013-05-27 19:42:00,
2013-05-27 15:47:00,88.3,62.3,30.11,SE,127,0.0,3.0,42,0.00,,,0.00,Wunderground v.1.15,2013-05-27 19:47:00,
2013-05-27 15:52:00,88.6,62.6,30.11,East,80,0.0,0.0,42,0.00,,,0.00,Wunderground v.1.15,2013-05-27 19:52:00,
2013-05-27 15:57:00,88.6,62.6,30.11,ESE,114,0.0,0.0,42,0.00,,,0.00,Wunderground v.1.15,2013-05-27 19:57:00,
2013-05-27 16:02:00,89.2,63.1,30.10,NE,52,0.0,6.0,42,0.00,,,0.00,Wunderground v.1.15,2013-05-27 20:02:00,
2013-05-27 16:07:00,89.5,62.7,30.10,ENE,77,0.0,6.0,41,0.00,,,0.00,Wunderground v.1.15,2013-05-27 20:07:00,
2013-05-27 16:13:00,89.5,62.0,30.10,ENE,73,0.0,0.0,40,0.00,,,0.00,Wunderground v.1.15,2013-05-27 20:13:00,
2013-05-27 16:18:00,89.5,62.0,30.10,ENE,75,0.0,0.0,40,0.00,,,0.00,Wunderground v.1.15,2013-05-27 20:18:00,
2013-05-27 16:23:00,89.4,61.9,30.10,East,91,0.0,0.0,40,0.00,,,0.00,Wunderground v.1.15,2013-05-27 20:23:00,
2013-05-27 16:28:00,89.7,62.9,30.10,SE,137,0.0,0.0,41,0.00,,,0.00,Wunderground v.1.15,2013-05-27 20:28:00,
2013-05-27 16:33:00,89.7,62.9,30.09,South,175,0.0,0.0,41,0.00,,,0.00,Wunderground v.1.15,2013-05-27 20:33:00,
2013-05-27 16:39:00,89.8,63.0,30.09,ENE,78,0.0,0.0,41,0.00,,,0.00,Wunderground v.1.15,2013-05-27 20:39:00,
2013-05-27 16:44:00,90.1,63.2,30.09,ESE,115,0.0,0.0,41,0.00,,,0.00,Wunderground v.1.15,2013-05-27 20:44:00,
2013-05-27 16:49:00,90.8,62.4,30.09,East,88,0.0,0.0,39,0.00,,,0.00,Wunderground v.1.15,2013-05-27 20:49:00,
2013-05-27 16:54:00,90.7,62.3,30.09,East,94,0.0,0.0,39,0.00,,,0.00,Wunderground v.1.15,2013-05-27 20:54:00,
2013-05-27 16:59:00,90.6,62.3,30.09,ESE,119,0.0,3.0,39,0.00,,,0.00,Wunderground v.1.15,2013-05-27 20:59:00,
2013-05-27 17:05:00,90.5,62.2,30.08,East,92,0.0,2.0,39,0.00,,,0.00,Wunderground v.1.15,2013-05-27 21:05:00,
2013-05-27 17:11:00,90.3,62.0,30.08,ENE,76,0.0,0.0,39,0.00,,,0.00,Wunderground v.1.15,2013-05-27 21:11:00,
2013-05-27 17:17:00,90.3,62.0,30.08,NE,48,0.0,3.0,39,0.00,,,0.00,Wunderground v.1.15,2013-05-27 21:17:00,
2013-05-27 17:23:00,90.4,62.8,30.08,ENE,76,0.0,0.0,40,0.00,,,0.00,Wunderground v.1.15,2013-05-27 21:23:00,
2013-05-27 17:28:00,90.4,62.1,30.08,East,80,0.0,0.0,39,0.00,,,0.00,Wunderground v.1.15,2013-05-27 21:28:00,
2013-05-27 17:33:00,90.1,61.8,30.08,ESE,123,0.0,1.0,39,0.00,,,0.00,Wunderground v.1.15,2013-05-27 21:33:00,
2013-05-27 17:39:00,90.0,62.4,30.08,East,89,0.0,1.0,40,0.00,,,0.00,Wunderground v.1.15,2013-05-27 21:39:00,
2013-05-27 17:44:00,90.0,63.1,30.08,ESE,119,0.0,3.0,41,0.00,,,0.00,Wunderground v.1.15,2013-05-27 21:44:00,
2013-05-27 17:49:00,90.0,63.1,30.08,NE,47,0.0,3.0,41,0.00,,,0.00,Wunderground v.1.15,2013-05-27 21:49:00,
2013-05-27 17:55:00,89.9,62.3,30.08,NE,51,0.0,5.0,40,0.00,,,0.00,Wunderground v.1.15,2013-05-27 21:55:00,
2013-05-27 18:00:00,89.7,62.9,30.08,ESE,119,0.0,0.0,41,0.00,,,0.00,Wunderground v.1.15,2013-05-27 22:00:00,
2013-05-27 18:05:00,89.5,62.7,30.07,East,86,0.0,4.0,41,0.00,,,0.00,Wunderground v.1.15,2013-05-27 22:05:00,
2013-05-27 18:11:00,89.2,62.4,30.07,NE,51,1.0,1.0,41,0.00,,,0.00,Wunderground v.1.15,2013-05-27 22:11:00,
2013-05-27 18:16:00,89.0,62.2,30.07,ENE,76,1.0,4.0,41,0.00,,,0.00,Wunderground v.1.15,2013-05-27 22:16:00,
2013-05-27 18:22:00,88.8,62.1,30.07,East,80,0.0,0.0,41,0.00,,,0.00,Wunderground v.1.15,2013-05-27 22:22:00,
2013-05-27 18:28:00,88.8,62.1,30.07,ESE,106,0.0,0.0,41,0.00,,,0.00,Wunderground v.1.15,2013-05-27 22:28:00,
2013-05-27 18:33:00,88.6,61.9,30.06,ESE,107,0.0,4.0,41,0.00,,,0.00,Wunderground v.1.15,2013-05-27 22:33:00,
2013-05-27 18:38:00,88.4,61.7,30.06,NE,45,0.0,4.0,41,0.00,,,0.00,Wunderground v.1.15,2013-05-27 22:38:00,
2013-05-27 18:43:00,88.2,62.2,30.06,NE,37,0.0,2.0,42,0.00,,,0.00,Wunderground v.1.15,2013-05-27 22:43:00,
2013-05-27 18:49:00,88.2,62.9,30.06,NE,53,0.0,2.0,43,0.00,,,0.00,Wunderground v.1.15,2013-05-27 22:49:00,
2013-05-27 18:54:00,88.1,62.1,30.06,NE,55,0.0,2.0,42,0.00,,,0.00,Wunderground v.1.15,2013-05-27 22:54:00,
2013-05-27 18:59:00,88.0,62.0,30.06,ENE,74,0.0,3.0,42,0.00,,,0.00,Wunderground v.1.15,2013-05-27 22:59:00,
2013-05-27 19:04:00,87.6,61.7,30.06,ESE,122,1.0,5.0,42,0.00,,,0.00,Wunderground v.1.15,2013-05-27 23:04:00,
2013-05-27 19:10:00,87.3,62.1,30.06,NNE,32,1.0,1.0,43,0.00,,,0.00,Wunderground v.1.15,2013-05-27 23:10:00,
2013-05-27 19:15:00,87.2,63.3,30.06,ENE,78,1.0,1.0,45,0.00,,,0.00,Wunderground v.1.15,2013-05-27 23:15:00,
2013-05-27 19:20:00,87.0,63.7,30.06,NE,35,0.0,0.0,46,0.00,,,0.00,Wunderground v.1.15,2013-05-27 23:20:00,
2013-05-27 19:25:00,86.8,62.9,30.06,NE,48,0.0,0.0,45,0.00,,,0.00,Wunderground v.1.15,2013-05-27 23:25:00,
2013-05-27 19:30:00,86.5,62.6,30.06,ENE,59,0.0,1.0,45,0.00,,,0.00,Wunderground v.1.15,2013-05-27 23:30:00,
2013-05-27 19:35:00,86.2,63.6,30.06,ENE,72,1.0,4.0,47,0.00,,,0.00,Wunderground v.1.15,2013-05-27 23:35:00,
2013-05-27 19:41:00,85.9,63.9,30.06,NE,49,1.0,1.0,48,0.00,,,0.00,Wunderground v.1.15,2013-05-27 23:41:00,
2013-05-27 19:47:00,85.5,63.6,30.06,East,100,1.0,2.0,48,0.00,,,0.00,Wunderground v.1.15,2013-05-27 23:47:00,
2013-05-27 19:52:00,85.2,63.3,30.06,East,92,0.0,0.0,48,0.00,,,0.00,Wunderground v.1.15,2013-05-27 23:52:00,
2013-05-27 19:57:00,85.0,63.7,30.06,NE,55,0.0,0.0,49,0.00,,,0.00,Wunderground v.1.15,2013-05-27 23:57:00,
2013-05-27 20:02:00,84.8,63.5,30.07,East,98,0.0,6.0,49,0.00,,,0.00,Wunderground v.1.15,2013-05-28 00:02:00,
2013-05-27 20:08:00,84.5,63.8,30.06,NE,37,0.0,6.0,50,0.00,,,0.00,Wunderground v.1.15,2013-05-28 00:08:00,
2013-05-27 20:14:00,84.2,64.1,30.07,East,86,1.0,2.0,51,0.00,,,0.00,Wunderground v.1.15,2013-05-28 00:14:00,
2013-05-27 20:19:00,84.0,63.9,30.07,East,80,0.0,2.0,51,0.00,,,0.00,Wunderground v.1.15,2013-05-28 00:19:00,
2013-05-27 20:24:00,83.9,63.8,30.07,ESE,113,0.0,1.0,51,0.00,,,0.00,Wunderground v.1.15,2013-05-28 00:24:00,
2013-05-27 20:30:00,83.6,63.6,30.07,East,87,0.0,0.0,51,0.00,,,0.00,Wunderground v.1.15,2013-05-28 00:30:00,
2013-05-27 20:35:00,83.5,64.0,30.07,East,83,0.0,1.0,52,0.00,,,0.00,Wunderground v.1.15,2013-05-28 00:35:00,
2013-05-27 20:40:00,83.3,64.4,30.07,NNW,348,1.0,4.0,53,0.00,,,0.00,Wunderground v.1.15,2013-05-28 00:40:00,
2013-05-27 20:45:00,83.1,64.2,30.07,ENE,59,1.0,4.0,53,0.00,,,0.00,Wunderground v.1.15,2013-05-28 00:45:00,
2013-05-27 20:50:00,82.9,64.0,30.07,ENE,66,0.0,0.0,53,0.00,,,0.00,Wunderground v.1.15,2013-05-28 00:50:00,
2013-05-27 20:56:00,82.7,63.8,30.08,ENE,69,1.0,4.0,53,0.00,,,0.00,Wunderground v.1.15,2013-05-28 00:56:00,
2013-05-27 21:02:00,82.4,64.1,30.08,East,91,1.0,3.0,54,0.00,,,0.00,Wunderground v.1.15,2013-05-28 01:02:00,
2013-05-27 21:07:00,82.2,63.9,30.08,East,85,1.0,5.0,54,0.00,,,0.00,Wunderground v.1.15,2013-05-28 01:07:00,
2013-05-27 21:13:00,82.0,64.2,30.09,SE,125,2.0,4.0,55,0.00,,,0.00,Wunderground v.1.15,2013-05-28 01:13:00,
2013-05-27 21:19:00,81.8,64.1,30.09,North,11,2.0,5.0,55,0.00,,,0.00,Wunderground v.1.15,2013-05-28 01:19:00,
2013-05-27 21:24:00,81.6,64.4,30.09,ENE,62,1.0,2.0,56,0.00,,,0.00,Wunderground v.1.15,2013-05-28 01:24:00,
2013-05-27 21:29:00,81.4,64.7,30.09,East,96,1.0,2.0,57,0.00,,,0.00,Wunderground v.1.15,2013-05-28 01:29:00,
2013-05-27 21:34:00,81.2,64.5,30.10,East,98,1.0,2.0,57,0.00,,,0.00,Wunderground v.1.15,2013-05-28 01:34:00,
2013-05-27 21:40:00,81.0,64.8,30.10,East,81,0.0,0.0,58,0.00,,,0.00,Wunderground v.1.15,2013-05-28 01:40:00,
2013-05-27 21:45:00,80.7,65.0,30.10,SE,125,0.0,3.0,59,0.00,,,0.00,Wunderground v.1.15,2013-05-28 01:45:00,
2013-05-27 21:50:00,80.5,64.9,30.10,East,82,1.0,1.0,59,0.00,,,0.00,Wunderground v.1.15,2013-05-28 01:50:00,
2013-05-27 21:55:00,80.3,65.1,30.11,East,100,2.0,2.0,60,0.00,,,0.00,Wunderground v.1.15,2013-05-28 01:55:00,
2013-05-27 22:00:00,80.1,65.4,30.11,North,360,2.0,3.0,61,0.00,,,0.00,Wunderground v.1.15,2013-05-28 02:00:00,
2013-05-27 22:06:00,79.9,65.2,30.12,NNE,32,2.0,10.0,61,0.00,,,0.00,Wunderground v.1.15,2013-05-28 02:06:00,
2013-05-27 22:11:00,79.7,65.5,30.12,ESE,119,2.0,2.0,62,0.00,,,0.00,Wunderground v.1.15,2013-05-28 02:11:00,
2013-05-27 22:16:00,79.5,65.8,30.13,SE,132,1.0,3.0,63,0.00,,,0.00,Wunderground v.1.15,2013-05-28 02:16:00,
2013-05-27 22:21:00,79.3,66.1,30.13,East,79,2.0,3.0,64,0.00,,,0.00,Wunderground v.1.15,2013-05-28 02:21:00,
2013-05-27 22:27:00,79.1,66.3,30.13,SSE,157,2.0,6.0,65,0.00,,,0.00,Wunderground v.1.15,2013-05-28 02:27:00,
2013-05-27 22:32:00,78.9,66.1,30.13,ENE,58,2.0,5.0,65,0.00,,,0.00,Wunderground v.1.15,2013-05-28 02:32:00,
2013-05-27 22:37:00,78.7,66.4,30.13,SSE,152,2.0,5.0,66,0.00,,,0.00,Wunderground v.1.15,2013-05-28 02:37:00,
2013-05-27 22:42:00,78.5,66.6,30.13,East,97,1.0,2.0,67,0.00,,,0.00,Wunderground v.1.15,2013-05-28 02:42:00,
2013-05-27 22:48:00,78.2,66.3,30.13,SSE,168,1.0,3.0,67,0.00,,,0.00,Wunderground v.1.15,2013-05-28 02:48:00,
2013-05-27 22:53:00,78.0,66.6,30.13,East,91,1.0,4.0,68,0.00,,,0.00,Wunderground v.1.15,2013-05-28 02:53:00,
2013-05-27 22:58:00,77.8,66.8,30.13,ESE,103,1.0,4.0,69,0.00,,,0.00,Wunderground v.1.15,2013-05-28 02:58:00,
2013-05-27 23:03:00,77.6,67.0,30.13,East,93,2.0,13.0,70,0.00,,,0.00,Wunderground v.1.15,2013-05-28 03:03:00,
2013-05-27 23:09:00,77.3,67.2,30.13,ENE,57,2.0,13.0,71,0.00,,,0.00,Wunderground v.1.15,2013-05-28 03:09:00,
2013-05-27 23:14:00,77.1,67.0,30.14,East,98,1.0,2.0,71,0.00,,,0.00,Wunderground v.1.15,2013-05-28 03:14:00,
2013-05-27 23:20:00,77.0,67.3,30.14,ESE,110,1.0,1.0,72,0.00,,,0.00,Wunderground v.1.15,2013-05-28 03:20:00,
2013-05-27 23:25:00,76.8,67.5,30.14,SSE,155,1.0,4.0,73,0.00,,,0.00,Wunderground v.1.15,2013-05-28 03:25:00,
2013-05-27 23:30:00,76.7,67.4,30.14,ESE,113,2.0,2.0,73,0.00,,,0.00,Wunderground v.1.15,2013-05-28 03:30:00,
2013-05-27 23:35:00,76.6,67.7,30.14,ENE,69,1.0,3.0,74,0.00,,,0.00,Wunderground v.1.15,2013-05-28 03:35:00,
2013-05-27 23:41:00,76.4,67.9,30.15,NE,56,2.0,2.0,75,0.00,,,0.00,Wunderground v.1.15,2013-05-28 03:41:00,
2013-05-27 23:46:00,76.3,67.8,30.15,SE,135,2.0,3.0,75,0.00,,,0.00,Wunderground v.1.15,2013-05-28 03:46:00,
2013-05-27 23:51:00,76.2,68.1,30.15,SSE,150,0.0,3.0,76,0.00,,,0.00,Wunderground v.1.15,2013-05-28 03:51:00,
2013-05-27 23:56:00,76.1,68.0,30.15,ESE,114,1.0,3.0,76,0.00,,,0.00,Wunderground v.1.15,2013-05-28 03:56:00,